This is the latest recevied weather packets stored in our database for station/object KY4LEX. If no packets are shown the sender has not sent any weather packets the latest 10 day(s).
| Time | Temp. | Humidity | Pressure | Rain* | Wind** | Luminosity | Snow |
|---|---|---|---|---|---|---|---|
| 1777661239 | 15.56° C | 54% | 1019.5 hPa | 0 mm | - | 746 W/m² | - |
| 1777660935 | 15.56° C | 52% | 1019.5 hPa | 0 mm | - | 240 W/m² | - |
| 1777660631 | 16.11° C | 51% | 1019.5 hPa | 0 mm | - | 205 W/m² | - |
| 1777660328 | 16.11° C | 51% | 1019.6 hPa | 0 mm | - | 205 W/m² | - |
| 1777660024 | 15.56° C | 50% | 1019.4 hPa | 0 mm | - | 559 W/m² | - |
| 1777659721 | 15.56° C | 52% | 1019.7 hPa | 0 mm | - | 231 W/m² | - |
| 1777659418 | 16.67° C | 50% | 1019.6 hPa | 0 mm | - | 205 W/m² | - |
| 1777658813 | 15.56° C | 51% | 1019.8 hPa | 0 mm | - | 858 W/m² | - |
| 1777658509 | 15.56° C | 51% | 1020.1 hPa | 0 mm | - | 495 W/m² | - |
| 1777657903 | 13.89° C | 54% | 1020.1 hPa | 0 mm | - | 782 W/m² | - |
| 1777656994 | 12.78° C | 57% | 1020 hPa | 0 mm | - | 129 W/m² | - |
| 1777656691 | 12.78° C | 63% | 1020.1 hPa | 0 mm | - | 137 W/m² | - |
| 1777656082 | 12.78° C | 65% | 1020.2 hPa | 0 mm | - | 116 W/m² | - |
| 1777655779 | 12.78° C | 65% | 1019.9 hPa | 0 mm | - | 72 W/m² | - |
| 1777655475 | 12.78° C | 65% | 1020 hPa | 0 mm | - | 74 W/m² | - |
| 1777655173 | 12.78° C | 64% | 1020 hPa | 0 mm | - | 79 W/m² | - |
| 1777654869 | 12.78° C | 63% | 1020 hPa | 0 mm | - | 62 W/m² | - |
| 1777654567 | 13.33° C | 61% | 1019.8 hPa | 0 mm | - | 54 W/m² | - |
| 1777654264 | 13.33° C | 61% | 1019.6 hPa | 0 mm | - | 56 W/m² | - |
| 1777653962 | 13.33° C | 60% | 1019.8 hPa | 0 mm | - | 83 W/m² | - |
| 1777653355 | 14.44° C | 56% | 1019.6 hPa | 0 mm | - | 109 W/m² | - |
| 1777653052 | 15° C | 52% | 1019.4 hPa | 0 mm | - | 89 W/m² | - |
| 1777652748 | 15° C | 50% | 1019.3 hPa | 0 mm | - | 90 W/m² | - |
| 1777652445 | 15° C | 49% | 1019.2 hPa | 0 mm | - | 170 W/m² | - |
| 1777651839 | 15° C | 48% | 1019.4 hPa | 0 mm | - | 132 W/m² | - |
* Rain latest hour (hover to see other rain measurements)
** Current wind speed in m/s (hover to see current wind gust speed)